Blackpool, United Kingdom

5:24 PM BST on May 22, 2017 (GMT +0100)
Blackpool

Weather History for EGNH - October, 2011

Change the Weather History Date:

Thursday, October 20, 2011

  Actual Average Record
Temperature  
Mean Temperature 44 °F -  
Max Temperature 52 °F 50 °F 60 °F (2006)
Min Temperature 37 °F 43 °F 35 °F (1998)
Degree Days  
Heating Degree Days 20    
Moisture  
Dew Point 42 °F    
Average Humidity 78    
Maximum Humidity 100    
Minimum Humidity 59    
Precipitation  
Precipitation 0.04 in - - ()
Sea Level Pressure  
Sea Level Pressure 30.28 in    
Wind  
Wind Speed 7 mph ()    
Max Wind Speed 20 mph    
Max Gust Speed 17 mph    
Visibility 6.2 miles    
Events Rain    
Averages and records for this station are not official NWS values.
T = Trace of Precipitation, MM = Missing Value Source: Averaged Metar Reports

Daily Weather History Graph

Daily Weather History Graph

Search for Another Location

Airport or City:

Trip Planner

Search our weather history database for the weather conditions in past years. The results will help you decide how hot, cold, wet, or windy it might be!

Date:

Astronomy

Oct. 20, 2011 Rise Set
Actual Time 7:48 AM BST 6:04 PM BST
Civil Twilight 7:12 AM BST 6:40 PM BST
Nautical Twilight 6:31 AM BST 7:21 PM BST
Astronomical Twilight 5:50 AM BST 8:02 PM BST
Moon No Moon Rise 3:03 PM BST (10/20)
Length of Visible Light 11h 28m
Length of Day
10h 16m
Waning Gibbous, 47% of the Moon is Illuminated
Oct 20
Waning Gibbous
Oct 26
New
Nov 2
First Quarter
Nov 10
Full
Nov 18
Last Quarter

Hourly Weather History & Observations

Time (BST) Temp. Windchill Dew Point Humidity Pressure Visibility Wind Dir Wind Speed Gust Speed Precip Events Conditions
12:50 AM 45 °F - 39 °F 73%  in - NNW 4.6 mph - -  
6:20 AM 41.0 °F - 37.4 °F 87% 30.27 in 6.2 mi Variable 2.3 mph - N/A   Scattered Clouds
6:50 AM 42 °F - 39 °F 85%  in - WNW 2.3 mph - -  
6:50 AM 42.8 °F 39.3 °F 41.0 °F 93% 30.30 in 6.2 mi West 5.8 mph 17.3 mph N/A Rain Light Rain Showers
7:20 AM 44.6 °F 42.2 °F 41.0 °F 87% 30.30 in 6.2 mi NNE 4.6 mph - N/A Rain Light Rain Showers
7:50 AM 41.0 °F 38.0 °F 39.2 °F 93% 30.30 in 6.2 mi SE 4.6 mph - N/A Rain Light Rain Showers
8:20 AM 42.8 °F 41.1 °F 41.0 °F 93% 30.30 in 6.2 mi ENE 3.5 mph - N/A Rain Light Rain Showers
8:50 AM 42.8 °F 40.1 °F 41.0 °F 93% 30.30 in 6.2 mi East 4.6 mph - N/A Rain Light Rain Showers
9:20 AM 42.8 °F - 42.8 °F 100% 30.30 in 6.2 mi ESE 2.3 mph - N/A Rain Light Rain Showers
9:50 AM 45 °F - 44 °F 92%  in - SE 3.5 mph - -  
9:50 AM 44.6 °F 43.1 °F 42.8 °F 93% 30.30 in 6.2 mi ESE 3.5 mph - N/A Rain Light Rain Showers
10:20 AM 48.2 °F - 44.6 °F 87% 30.30 in 6.2 mi Variable 3.5 mph - N/A Rain Light Rain Showers
10:50 AM 48.2 °F - 41.0 °F 76% 30.30 in 6.2 mi West 9.2 mph - N/A   Scattered Clouds
11:20 AM 51.8 °F - 42.8 °F 71% 30.33 in 6.2 mi West 9.2 mph - N/A   Scattered Clouds
11:50 AM 51.8 °F - 42.8 °F 71% 30.33 in 6.2 mi West 8.1 mph - N/A   Scattered Clouds
12:20 PM 50.0 °F - 44.6 °F 82% 30.30 in 6.2 mi SW 5.8 mph - N/A Rain Light Rain Showers
12:50 PM 52 °F - 44 °F 65%  in - West 10.4 mph - -  
12:50 PM 51.8 °F - 42.8 °F 71% 30.30 in 6.2 mi West 15.0 mph - N/A   Scattered Clouds
1:20 PM 51.8 °F - 42.8 °F 71% 30.30 in 6.2 mi WSW 15.0 mph - N/A   Scattered Clouds
1:50 PM 51.8 °F - 44.6 °F 76% 30.30 in 6.2 mi West 18.4 mph - N/A   Scattered Clouds
2:50 PM 50.0 °F - 44.6 °F 82% 30.27 in 6.2 mi WSW 8.1 mph - N/A   Scattered Clouds
3:20 PM 51.8 °F - 42.8 °F 71% 30.27 in 6.2 mi WSW 15.0 mph - N/A   Scattered Clouds
3:50 PM 51 °F - 41 °F 59%  in - WSW 16.1 mph - -  
3:50 PM 51.8 °F - 42.8 °F 71% 30.27 in 6.2 mi WSW 15.0 mph - N/A   Scattered Clouds
4:20 PM 51.8 °F - 42.8 °F 71% 30.24 in 6.2 mi SW 16.1 mph - N/A   Scattered Clouds
4:50 PM 51.8 °F - 42.8 °F 71% 30.24 in 6.2 mi SW 15.0 mph - N/A   Scattered Clouds
5:50 PM 51.8 °F - 42.8 °F 71% 30.24 in 6.2 mi SW 16.1 mph - N/A   Scattered Clouds
6:20 PM 51.8 °F - 42.8 °F 71% 30.24 in 6.2 mi SW 16.1 mph - N/A   Scattered Clouds
6:50 PM 51 °F - 42 °F 61%  in - WSW 19.6 mph - -  
6:50 PM 51.8 °F - 42.8 °F 71% 30.24 in 6.2 mi SW 17.3 mph - N/A   Mostly Cloudy
8:20 PM 51.8 °F - 42.8 °F 71% 30.21 in 6.2 mi SSW 15.0 mph - N/A   Mostly Cloudy
8:50 PM 51.8 °F - 44.6 °F 76% 30.21 in 6.2 mi SSW 15.0 mph - N/A Rain Light Rain Showers
9:50 PM 49 °F - 42 °F 71%  in - South 12.7 mph - -